[[{"header":{"parameterUnit":"m.s-1","parameterCategory":1,"la1":30.2991,"la2":30.254,"lo1":-89.0895,"lo2":-89.0444,"dy":0.0017,"dx":0.0017,"nx":28,"ny":28,"refTime":"2025-11-27T03:00:00:Z","depth":0,"parameterNumber":2,"parameterNumberName":"U-component_of_WINDS"},"data":[0,0,0,0,0,0,0,0,0,0,0,0,0,0,0,0,0,0,0,0,0,0,0,0,0,0,0,0,0,0,0,0,0,0,0,0,0,0,0,0,0,0,0,0,0,0,0,0,0,0,0,0,0,0,0,0,0,0,0.3802,0.3802,0,0.3834,0.3834,0.3835,0.3856,0.3856,0.3856,0.3856,0.389,0.3891,0.3892,0,0,0,0,0,0,0,0,0,0,0,0,0,0.376,0.3761,0.3802,0.3802,0.3802,0.3834,0.3834,0.3835,0.3856,0.3856,0.3856,0.3857,0.389,0.3891,0.3892,0,0,0,0,0,0,0,0,0,0,0,0,0,0.3784,0.3761,0.3801,0.3817,0.3818,0.3834,0.3834,0.3835,0.3856,0.3856,0.3856,0.3857,0.389,0.3891,0.3892,0.3894,0,0,0.3895,0.3896,0,0,0,0,0,0,0,0,0.3782,0.3785,0.3814,0.3816,0.3818,0.3841,0.3832,0.3855,0.3856,0.3842,0.3856,0.3857,0.3874,0.3876,0.3882,0.3896,0.3897,0.3895,0.3896,0.3897,0.3897,0,0,0,0,0,0,0,0.3781,0.3784,0.3814,0.3815,0.3817,0.3823,0.3826,0.3836,0.3856,0.3843,0.3845,0.3848,0.3875,0.3881,0.3883,0.3898,0.3895,0.3896,0.3897,0.3897,0.3918,0.3917,0,0,0,0,0,0,0.3776,0.3782,0.3813,0.3815,0.38,0.3823,0.3827,0.3833,0.3856,0.386,0.3848,0.3849,0.3878,0.3881,0.3884,0.3889,0.3896,0.3898,0.3898,0.3918,0.3918,0.3917,0,0,0,0,0,0,0.3775,0.3779,0.3812,0.3799,0.3804,0.3824,0.383,0.3834,0.384,0.386,0.3863,0.385,0.3879,0.3882,0.3892,0.3891,0.3898,0.3899,0.3918,0.3918,0.3917,0.3899,0,0,0,0,0,0,0.3774,0.3778,0.3779,0.3799,0.3805,0.3819,0.383,0.3834,0.3842,0.3843,0.3863,0.3866,0.3879,0.389,0.3893,0.3892,0.39,0.3918,0.3918,0.3918,0.39,0.3899,0.3897,0,0,0,0,0,0.3773,0.3773,0.3779,0.3783,0.3806,0.3819,0.3822,0.3836,0.3841,0.3843,0.3856,0.3866,0.389,0.3891,0.3894,0.3894,0.3918,0.3918,0.3918,0.3901,0.3899,0.3897,0,0,0,0,0,0,0.3752,0.3775,0.3783,0.3789,0.3802,0.3822,0.3824,0.3834,0.3845,0.3846,0.3864,0.3869,0.3877,0.3887,0.3887,0.3899,0.3906,0.3906,0.3892,0.389,0.3889,0.3886,0.3901,0,0,0,0,0,0.3748,0.3756,0.3777,0.378,0.3786,0.3804,0.381,0.3821,0.3834,0.384,0.3854,0.3867,0.3878,0.3885,0.3896,0.3902,0.3907,0.3904,0.3902,0.3901,0.3901,0.3906,0.3905,0.3916,0.3916,0.3916,0,0,0.374,0.3754,0.3758,0.3777,0.3787,0.3796,0.3808,0.3817,0.3823,0.3841,0.3851,0.3862,0.3878,0.3886,0.3891,0.3895,0.3899,0.39,0.3899,0.39,0.3906,0.3905,0.3904,0.3916,0.3916,0.3916,0,0,0.373,0.3741,0.3746,0.3757,0.3774,0.3786,0.3787,0.3806,0.3814,0.3824,0.3838,0.3847,0.3865,0.3876,0.3885,0.3881,0.3891,0.3884,0.3876,0.3881,0.388,0.3879,0.3878,0.3878,0.3884,0.3884,0.3884,0,0.3718,0.3731,0.3747,0.3755,0.3763,0.378,0.3786,0.3796,0.3815,0.382,0.3825,0.3849,0.3861,0.3872,0.3872,0.3877,0.388,0.3881,0.3879,0.3878,0.3878,0.3877,0.3877,0.3883,0.3883,0.3883,0.3883,0,0.3716,0.3725,0.3727,0.3746,0.3754,0.3761,0.3778,0.3785,0.3795,0.3807,0.3818,0.3834,0.3849,0.3852,0.3862,0.3866,0.3868,0.3875,0.3883,0.3876,0.3875,0.3875,0.3882,0.3882,0.3882,0.3882,0,0,0.3693,0.3721,0.3721,0.3731,0.3751,0.3758,0.3766,0.3781,0.3787,0.38,0.3808,0.3824,0.3831,0.384,0.3852,0.3856,0.3853,0.3863,0.3864,0.3861,0.3859,0.3853,0.3853,0.386,0.386,0.386,0.3858,0,0.3686,0.3701,0.3716,0.3725,0.3735,0.3752,0.3759,0.3772,0.3784,0.3794,0.3807,0.3818,0.3827,0.3833,0.3838,0.3852,0.3853,0.3853,0.3868,0.3868,0.3863,0.3852,0.3846,0.3843,0.3858,0.3858,0.3858,0,0.368,0.3692,0.3703,0.3723,0.3728,0.3734,0.3749,0.3758,0.3775,0.3783,0.3794,0.3807,0.3817,0.3823,0.3838,0.3838,0.3845,0.3853,0.3854,0.3855,0.3862,0.3854,0.3843,0.3842,0.3858,0.3858,0.3858,0,0.3662,0.3682,0.3691,0.3698,0.3722,0.3726,0.3737,0.3753,0.3761,0.3775,0.3781,0.3796,0.3804,0.3816,0.3832,0.3835,0.3845,0.3853,0.3853,0.3853,0.3854,0.3854,0.3844,0.3859,0.3859,0.3859,0.3859,0,0.3653,0.3658,0.3683,0.3689,0.3696,0.3715,0.3722,0.3734,0.3749,0.3757,0.3773,0.3781,0.3802,0.3813,0.3827,0.3837,0.3841,0.3848,0.3852,0.3847,0.3846,0.3852,0.3852,0.3859,0.3859,0.3859,0.3859,0,0.3634,0.3651,0.3662,0.3684,0.369,0.3694,0.3714,0.372,0.3734,0.3745,0.3748,0.3769,0.3783,0.3801,0.382,0.3829,0.3839,0.3844,0.3833,0.3835,0.3834,0.3834,0.3827,0.3828,0.3842,0.3842,0.3842,0,0.3626,0.3631,0.3655,0.3662,0.3671,0.3682,0.3691,0.371,0.3719,0.3739,0.3743,0.3758,0.3771,0.3792,0.381,0.3825,0.3831,0.3827,0.3833,0.3828,0.3831,0.3831,0.3832,0.3826,0.3826,0.3825,0.3825,0,0.3612,0.3621,0.3632,0.3648,0.3658,0.3671,0.3684,0.3689,0.3711,0.372,0.3735,0.3745,0.3765,0.378,0.3798,0.3809,0.3821,0.3823,0.3824,0.3819,0.3813,0.3817,0.3829,0.3823,0.3823,0.3824,0.3824,0.3824,0.3599,0.3605,0.3622,0.3635,0.3648,0.366,0.3668,0.3683,0.3695,0.3712,0.3723,0.3737,0.3755,0.378,0.3791,0.3803,0.3808,0.3809,0.3809,0.3809,0.3808,0.3811,0.3807,0.3807,0.3807,0.3807,0.3807,0,0.3586,0.3598,0.361,0.3629,0.364,0.365,0.3666,0.3674,0.3687,0.3702,0.3715,0.3732,0.3747,0.3766,0.3783,0.3789,0.3795,0.3793,0.3792,0.3795,0.3803,0.38,0.3788,0.3788,0.3788,0.3788,0.3788,0.3788,0.358,0.359,0.3601,0.3618,0.3631,0.3645,0.3653,0.3665,0.3678,0.3696,0.3709,0.3721,0.3739,0.3757,0.3772,0.3777,0.3783,0.3779,0.3786,0.3793,0.3794,0.3796,0.3794,0.378,0.378,0.3777,0.3777,0.3777]},{"header":{"parameterUnit":"m.s-1","parameterCategory":1,"la1":30.2991,"la2":30.254,"lo1":-89.0895,"lo2":-89.0444,"dy":0.0017,"dx":0.0017,"nx":28,"ny":28,"refTime":"2025-11-27T03:00:00:Z","depth":0,"parameterNumber":3,"parameterNumberName":"V-component_of_WINDS"},"data":[0,0,0,0,0,0,0,0,0,0,0,0,0,0,0,0,0,0,0,0,0,0,0,0,0,0,0,0,0,0,0,0,0,0,0,0,0,0,0,0,0,0,0,0,0,0,0,0,0,0,0,0,0,0,0,0,0,0,-5.1611,-5.1612,0,-5.1699,-5.17,-5.1701,-5.1685,-5.1683,-5.1682,-5.168,-5.1766,-5.177,-5.1773,0,0,0,0,0,0,0,0,0,0,0,0,0,-5.1425,-5.1428,-5.1611,-5.1612,-5.1613,-5.1699,-5.17,-5.1701,-5.1685,-5.1683,-5.1681,-5.1679,-5.1765,-5.1769,-5.1774,0,0,0,0,0,0,0,0,0,0,0,0,0,-5.1508,-5.1429,-5.161,-5.1615,-5.1617,-5.1699,-5.17,-5.1702,-5.1685,-5.1683,-5.1681,-5.1679,-5.1763,-5.1769,-5.1774,-5.1856,0,0,-5.1791,-5.1794,0,0,0,0,0,0,0,0,-5.1504,-5.1515,-5.1613,-5.1615,-5.1617,-5.1679,-5.1666,-5.1753,-5.1686,-5.1659,-5.168,-5.1677,-5.1739,-5.1746,-5.1768,-5.186,-5.1864,-5.1792,-5.1795,-5.1798,-5.1799,0,0,0,0,0,0,0,-5.1498,-5.1511,-5.1646,-5.1615,-5.1617,-5.1612,-5.1621,-5.1683,-5.1711,-5.1661,-5.166,-5.1671,-5.1739,-5.1762,-5.1769,-5.1865,-5.1792,-5.1797,-5.18,-5.1802,-5.203,-5.2033,0,0,0,0,0,0,-5.1491,-5.1506,-5.1643,-5.1648,-5.1553,-5.1617,-5.1628,-5.1661,-5.171,-5.1715,-5.1673,-5.167,-5.1754,-5.1763,-5.1772,-5.1873,-5.1798,-5.1803,-5.1806,-5.2028,-5.2031,-5.2034,0,0,0,0,0,0,-5.1487,-5.1503,-5.1639,-5.1577,-5.1594,-5.1623,-5.1661,-5.1664,-5.1687,-5.1719,-5.1724,-5.1692,-5.1752,-5.1765,-5.1836,-5.1875,-5.1806,-5.1811,-5.2024,-5.2029,-5.2032,-5.2073,0,0,0,0,0,0,-5.1482,-5.1502,-5.1534,-5.1578,-5.1598,-5.1702,-5.1663,-5.1667,-5.1698,-5.1695,-5.1738,-5.1743,-5.1751,-5.1828,-5.1842,-5.1882,-5.1815,-5.2021,-5.2026,-5.2031,-5.2068,-5.2077,-5.2086,0,0,0,0,0,-5.1475,-5.154,-5.1536,-5.1552,-5.1638,-5.1705,-5.1716,-5.1725,-5.1701,-5.1733,-5.1754,-5.1742,-5.1869,-5.1835,-5.1851,-5.1893,-5.2019,-5.2025,-5.2031,-5.2064,-5.2076,-5.2085,0,0,0,0,0,0,-5.1498,-5.1546,-5.1541,-5.1623,-5.166,-5.1702,-5.1742,-5.1737,-5.1781,-5.1776,-5.1785,-5.1795,-5.1868,-5.1887,-5.1849,-5.1975,-5.194,-5.195,-5.196,-5.1971,-5.198,-5.1974,-5.182,0,0,0,0,0,-5.1513,-5.1564,-5.1603,-5.1671,-5.169,-5.1713,-5.1742,-5.1747,-5.1785,-5.18,-5.1826,-5.1862,-5.1911,-5.1942,-5.1988,-5.2071,-5.208,-5.2107,-5.2116,-5.2124,-5.2132,-5.2178,-5.2191,-5.2054,-5.2054,-5.2053,0,0,-5.1543,-5.1576,-5.1607,-5.1676,-5.1705,-5.1758,-5.1726,-5.1782,-5.1821,-5.1808,-5.1878,-5.1898,-5.1939,-5.2017,-5.2053,-5.2036,-5.2172,-5.2131,-5.2137,-5.2141,-5.2186,-5.2199,-5.221,-5.2058,-5.2057,-5.2056,0,0,-5.1625,-5.1655,-5.1716,-5.1747,-5.1792,-5.1808,-5.1822,-5.1866,-5.1879,-5.195,-5.1942,-5.1988,-5.207,-5.2101,-5.2127,-5.2223,-5.2214,-5.2237,-5.2284,-5.2329,-5.234,-5.235,-5.2385,-5.2397,-5.2245,-5.2245,-5.2246,0,-5.1656,-5.1736,-5.1747,-5.1805,-5.1836,-5.1829,-5.1891,-5.192,-5.1977,-5.1998,-5.1979,-5.2084,-5.2111,-5.2197,-5.2221,-5.2242,-5.2259,-5.2232,-5.2338,-5.2348,-5.2357,-5.2391,-5.2404,-5.2248,-5.2248,-5.2248,-5.2247,0,-5.1773,-5.1829,-5.1872,-5.1931,-5.1966,-5.2026,-5.2045,-5.208,-5.2082,-5.2099,-5.2172,-5.2204,-5.2258,-5.2278,-5.228,-5.2365,-5.2353,-5.2336,-5.2301,-5.2373,-5.2404,-5.2417,-5.2252,-5.2251,-5.225,-5.225,0,0,-5.1871,-5.1937,-5.1953,-5.198,-5.2031,-5.2073,-5.2132,-5.2187,-5.2217,-5.2257,-5.2307,-5.2378,-5.2363,-5.2393,-5.2398,-5.2438,-5.2513,-5.2416,-5.2417,-5.2433,-5.261,-5.2623,-5.2638,-5.2508,-5.251,-5.2512,-5.2607,0,-5.1958,-5.2065,-5.2078,-5.2172,-5.2224,-5.2219,-5.2271,-5.2307,-5.2325,-5.2371,-5.239,-5.2441,-5.2417,-5.2435,-5.2474,-5.2496,-5.2549,-5.2489,-5.2554,-5.2556,-5.2544,-5.2655,-5.2668,-5.2756,-5.2619,-5.2622,-5.2623,0,-5.2075,-5.2121,-5.2221,-5.2267,-5.2289,-5.2336,-5.2387,-5.2431,-5.2473,-5.2483,-5.2518,-5.2518,-5.2579,-5.2541,-5.2625,-5.2584,-5.2611,-5.2626,-5.263,-5.2636,-5.2594,-5.2665,-5.2785,-5.2798,-5.2643,-5.2641,-5.264,0,-5.2137,-5.2224,-5.2296,-5.232,-5.2374,-5.2407,-5.2431,-5.2471,-5.2503,-5.2548,-5.2569,-5.2619,-5.2647,-5.2686,-5.27,-5.2671,-5.2783,-5.2747,-5.2793,-5.2793,-5.2817,-5.2815,-5.2944,-5.2834,-5.2834,-5.2833,-5.2833,0,-5.2234,-5.2296,-5.2325,-5.237,-5.2439,-5.2453,-5.252,-5.2543,-5.2578,-5.2626,-5.2624,-5.2669,-5.2684,-5.2731,-5.2742,-5.2811,-5.2823,-5.2833,-5.2835,-5.2833,-5.2832,-5.2851,-5.2846,-5.2837,-5.2836,-5.2835,-5.2835,0,-5.2315,-5.2338,-5.2416,-5.2463,-5.2476,-5.2525,-5.2564,-5.2606,-5.2625,-5.2685,-5.27,-5.2729,-5.2784,-5.2802,-5.2869,-5.2876,-5.2956,-5.2953,-5.2943,-5.2944,-5.299,-5.2986,-5.3135,-5.3156,-5.3032,-5.3033,-5.3034,0,-5.2376,-5.2424,-5.2476,-5.251,-5.2536,-5.2588,-5.2622,-5.2638,-5.2673,-5.2725,-5.2762,-5.2817,-5.2863,-5.2952,-5.2978,-5.3029,-5.3027,-5.3076,-5.3034,-5.3032,-5.3029,-5.3026,-5.3031,-5.3083,-5.3085,-5.3086,-5.3087,0,-5.2481,-5.2491,-5.2541,-5.2595,-5.2637,-5.268,-5.2721,-5.2748,-5.2769,-5.2809,-5.2867,-5.2903,-5.2973,-5.3028,-5.3081,-5.3104,-5.3099,-5.31,-5.3114,-5.3112,-5.3105,-5.3111,-5.2965,-5.3096,-5.3095,-5.3094,-5.3094,-5.3094,-5.2555,-5.2598,-5.2642,-5.2698,-5.2732,-5.2771,-5.2814,-5.2839,-5.2889,-5.2948,-5.2954,-5.3017,-5.3058,-5.3129,-5.3155,-5.3204,-5.319,-5.3209,-5.3215,-5.3219,-5.3224,-5.3098,-5.3213,-5.3213,-5.3213,-5.3213,-5.3213,0,-5.2661,-5.269,-5.2742,-5.2801,-5.2846,-5.2839,-5.2886,-5.2923,-5.2979,-5.3019,-5.3064,-5.3132,-5.3186,-5.3217,-5.3271,-5.3305,-5.3304,-5.3318,-5.3316,-5.3322,-5.3232,-5.3216,-5.3318,-5.3318,-5.3318,-5.3318,-5.3318,-5.3318,-5.2721,-5.2795,-5.281,-5.2899,-5.2928,-5.2991,-5.3018,-5.3055,-5.3087,-5.3163,-5.3209,-5.323,-5.3266,-5.3323,-5.3373,-5.338,-5.3401,-5.3417,-5.3423,-5.3339,-5.3328,-5.3318,-5.3302,-5.3421,-5.3421,-5.3509,-5.3509,-5.351]}]]